Location: Capelle
(50.3413°N, 1.9974°E)
Time: 22:59:30
(UTC+00:00)

Cosmos 1328 Rocket - Pass Details

Date: 12 January 2026
Orbit: 595 x 618 km, 82.5° (Epoch: 7 February)

Event Time Altitude Azimuth Distance (km) Brightness Sun altitude
Rises 16:58:44 0° 162° (SSE) 2,858 7.1 -7.2°
Reaches altitude 10° 17:01:06 10° 152° (SSE) 1,963 6.1 -7.5°
Maximum altitude 17:04:57 32° 90° (E) 1,068 4.3 -8.1°
Drops below altitude 10° 17:08:51 10° 28° (NNE) 1,989 5.7 -8.7°
Enters shadow 17:11:03 - 19° (NNE) 2,824 6.5 -9.0°
